Weather History for Cordova, AK

Change the Weather History Date:

Monday, February 24, 2014

  Actual Average Record
Temperature  
Mean Temperature 15 °F -  
Max Temperature 30 °F 36 °F 52 °F (1963)
Min Temperature 0 °F 20 °F -5 °F (2007)
Degree Days  
Heating Degree Days 50    
Moisture  
Dew Point 6 °F    
Average Humidity 73    
Maximum Humidity 88    
Minimum Humidity 42    
Precipitation  
Precipitation 0.00 in - - ()
Snow  
Snow 0.00 in - - ()
Snow Depth 15.00 in    
Sea Level Pressure  
Sea Level Pressure 30.16 in    
Wind  
Wind Speed 1 mph (NW)    
Max Wind Speed 5 mph    
Max Gust Speed -    
Visibility 10 miles    
Events      
Averages and records for this station are not official NWS values.
T = Trace of Precipitation, MM = Missing Value Source: NWS Daily Summary

Daily Weather History Graph

Daily Weather History Graph

Search for Another Location

Airport:

Trip Planner

Search our weather history database for the weather conditions in past years. The results will help you decide how hot, cold, wet, or windy it might be!

Date:

Astronomy

Feb. 24, 2014 Rise Set
Actual Time 7:55 AM AKST 5:55 PM AKST
Civil Twilight 7:12 AM AKST 6:39 PM AKST
Nautical Twilight 6:23 AM AKST 7:27 PM AKST
Astronomical Twilight 5:34 AM AKST 8:17 PM AKST
Moon 4:56 AM AKST (2/24) 12:13 PM AKST (2/24)
Length of Visible Light 11h 26m
Length of Day
10h 00m
Waning Crescent, 26% of the Moon is Illuminated
Feb 24
Waning Crescent
Feb 28
New
Mar 8
First Quarter
Mar 16
Full
Mar 23
Last Quarter

Hourly Weather History & Observations

Time (AKST) Temp. Windchill Dew Point Humidity Pressure Visibility Wind Dir Wind Speed Gust Speed Precip Events Conditions
12:53 AM 3.9 °F - 1.0 °F 88% 30.14 in 10.0 mi Calm Calm - N/A   Clear
1:53 AM 3.9 °F - -0.0 °F 84% 30.14 in 10.0 mi Calm Calm - N/A   Clear
3:53 AM 3.9 °F - -0.9 °F 80% 30.11 in 10.0 mi Calm Calm - N/A   Clear
4:53 AM 1.9 °F - -2.9 °F 80% 30.11 in 10.0 mi Calm Calm - N/A   Clear
5:53 AM 3.0 °F - -0.0 °F 87% 30.11 in 10.0 mi Calm Calm - N/A   Clear
6:53 AM -0.9 °F - -4.0 °F 87% 30.12 in 10.0 mi Calm Calm - N/A   Clear
7:53 AM 1.0 °F - -2.9 °F 83% 30.12 in 10.0 mi Calm Calm - N/A   Clear
8:53 AM 1.9 °F - -2.0 °F 83% 30.13 in 10.0 mi Calm Calm - N/A   Clear
9:53 AM 10.9 °F - 8.1 °F 88% 30.16 in 10.0 mi Calm Calm - N/A   Clear
10:53 AM 14.0 °F 6.5 °F 8.1 °F 77% 30.17 in 10.0 mi West 4.6 mph - N/A   Clear
11:53 AM 21.9 °F 17.2 °F 10.9 °F 63% 30.16 in 10.0 mi Variable 3.5 mph - 0.00 in   Clear
12:53 PM 26.1 °F - 9.0 °F 49% 30.16 in 10.0 mi Calm Calm - N/A   Clear
1:53 PM 27.0 °F - 8.1 °F 45% 30.17 in 10.0 mi Calm Calm - N/A   Clear
2:53 PM 26.1 °F 20.5 °F 8.1 °F 47% 30.17 in 10.0 mi West 4.6 mph - N/A   Clear
3:53 PM 30.9 °F - 10.0 °F 42% 30.15 in 10.0 mi Calm Calm - N/A   Clear
4:53 PM 27.0 °F - 7.0 °F 43% 30.16 in 10.0 mi Calm Calm - N/A   Clear
5:53 PM 21.9 °F - 7.0 °F 53% 30.17 in 10.0 mi Calm Calm - N/A   Scattered Clouds
6:53 PM 16.0 °F - 10.9 °F 81% 30.17 in 10.0 mi Calm Calm - N/A   Partly Cloudy
7:53 PM 16.0 °F - 12.0 °F 84% 30.18 in 10.0 mi Calm Calm - N/A   Partly Cloudy
8:53 PM 14.0 °F 8.2 °F 10.9 °F 88% 30.19 in 10.0 mi NNW 3.5 mph - N/A   Clear
9:53 PM 14.0 °F 8.2 °F 9.0 °F 80% 30.18 in 10.0 mi NNE 3.5 mph - N/A   Clear
10:53 PM 15.1 °F - 10.9 °F 84% 30.20 in 10.0 mi Calm Calm - N/A   Clear
11:53 PM 12.0 °F - 9.0 °F 88% 30.20 in 10.0 mi Calm Calm - N/A   Clear